RH
14 17 19 20 20 22 24 25 26 28 28 27 26 26 27 28 29 29 30 31 30 27 24 22 22 23 24 26 27 27 27 27 26 25 23 22 21 21 20 21 21 21 21 21 21 20 20 20 20 21 21 21 22 22 22 22 21 22 23 22 23 23 22 23 23 23 25 25 26 27 28 27 27 26 26 28 33 41 48 52 55 58 60 61 60
12 15 17 19 19 19 21 23 26 28 29 28 27 27 27 27 28 28 30 32 32 31 29 27 26 27 27 28 29 28 28 27 26 26 24 22 21 20 19 20 20 21 21 21 22 21 21 21 21 21 21 21 22 22 22 22 23 23 23 23 23 23 23 24 24 25 25 26 27 28 28 29 28 27 27 30 36 45 51 54 56 59 66 70 70
11 13 15 18 19 19 20 21 24 26 27 28 28 27 28 27 27 27 28 30 31 31 30 29 29 29 29 29 30 29 27 26 25 25 23 22 21 20 19 20 20 21 22 22 23 23 23 23 23 23 23 22 22 23 22 23 23 23 24 24 24 24 25 25 25 27 27 28 28 28 29 29 29 29 31 35 44 52 57 58 58 62 68 75 78
12 12 13 16 18 19 21 21 22 24 24 25 26 25 26 27 26 26 27 28 29 28 28 28 28 29 29 29 29 28 27 25 24 24 23 21 20 19 19 19 20 21 22 23 24 25 25 26 26 26 26 26 26 26 26 25 25 26 26 26 26 27 27 28 28 28 29 30 31 31 32 33 33 35 37 42 51 58 63 65 65 67 72 79 83
14 12 12 14 16 18 20 20 20 21 21 22 23 23 23 23 24 24 25 25 25 25 24 24 25 26 27 27 26 26 25 24 23 22 21 20 19 19 19 19 21 22 23 25 27 28 29 30 31 32 32 32 32 31 31 31 31 31 31 31 33 33 34 35 35 35 35 36 37 38 40 41 42 43 45 48 54 61 66 68 69 71 74 81 85
17 14 12 12 15 17 17 18 18 17 17 18 20 22 22 22 22 22 23 23 23 23 22 21 21 22 23 23 23 23 22 21 21 19 19 19 19 19 20 20 22 24 26 29 30 32 33 34 36 38 38 39 40 40 40 41 42 43 45 48 50 52 53 53 53 54 54 54 55 55 56 56 55 54 54 55 57 61 65 68 70 71 73 80 81
25 17 15 13 14 15 15 15 15 14 15 15 16 18 19 20 20 20 21 21 21 22 22 21 20 19 20 20 20 20 20 18 17 18 18 18 19 19 21 23 25 27 29 31 33 34 35 37 38 40 42 45 47 50 52 55 59 64 71 78 81 82 82 82 82 81 81 81 80 78 76 74 71 67 65 63 62 63 65 67 68 69 71 78 81
34 22 19 16 13 14 15 15 15 14 14 14 15 16 16 16 17 18 18 19 19 19 19 19 18 18 17 17 18 17 17 16 17 17 18 18 20 22 23 25 27 29 30 32 33 34 34 35 36 37 40 44 47 52 56 60 65 71 82 94 100 100 99 100 100 98 97 98 97 95 91 86 82 79 77 75 71 67 67 68 69 69 68 73 82
41 31 24 20 15 13 14 15 15 15 15 15 15 15 15 15 15 16 16 17 16 15 15 15 15 16 15 15 16 16 16 17 17 17 19 20 22 24 25 27 28 29 30 30 30 30 29 28 29 29 31 33 34 37 41 44 47 51 59 70 80 89 96 100 103 102 100 100 100 97 91 85 83 85 87 88 82 75 74 74 75 78 75 71 80
47 37 25 18 15 13 15 14 14 16 16 16 17 17 17 17 16 16 16 16 16 14 14 14 13 14 15 15 16 16 16 17 17 18 20 21 22 23 24 26 28 27 27 27 26 25 23 22 22 21 21 22 22 23 25 26 28 30 32 35 41 50 60 70 82 91 95 94 90 83 76 76 83 90 96 100 97 90 85 83 86 92 92 84 83
49 37 22 14 13 13 14 14 13 14 15 16 17 18 18 17 16 15 15 14 15 14 13 13 14 14 14 15 15 15 16 17 18 18 19 19 20 20 22 23 24 24 25 25 24 21 20 19 18 18 18 18 18 19 19 20 21 23 23 24 25 26 28 33 42 51 59 64 65 62 60 68 80 90 99 104 103 96 87 85 92 100 105 101 95
51 37 23 15 15 13 13 15 14 13 13 14 15 16 16 17 15 14 14 13 12 14 13 13 14 14 14 14 13 12 13 15 16 16 15 15 15 16 18 19 19 20 21 22 22 20 18 18 17 17 17 17 17 17 18 19 20 21 22 22 23 23 23 23 23 25 29 33 38 43 47 55 68 81 91 91 86 80 77 81 88 93 102 108 103
56 41 29 18 17 16 11 11 13 14 13 13 13 14 14 16 17 15 15 15 13 13 14 14 13 13 13 12 11 10 11 12 13 13 11 11 12 12 14 16 16 16 18 18 19 18 17 17 17 17 16 16 17 17 16 17 18 19 21 22 23 23 22 23 22 22 22 21 23 28 31 36 46 57 60 56 52 54 59 67 70 70 83 102 106
61 44 35 30 42 53 39 23 17 16 17 16 13 14 14 13 16 16 15 16 16 15 14 13 13 13 12 10 9 9 10 10 9 10 9 9 10 11 12 13 13 13 15 15 16 16 17 17 16 17 16 15 16 16 15 16 16 17 18 19 20 21 21 22 22 21 21 20 19 21 22 22 26 30 29 26 28 32 36 40 41 39 50 74 92
70 51 39 38 63 93 90 67 48 39 43 38 22 16 17 12 11 14 14 16 16 15 15 14 12 12 10 10 9 7 8 9 8 8 9 9 10 11 11 11 11 12 13 13 14 15 15 16 16 16 16 16 16 16 15 15 15 16 17 17 18 19 19 21 22 20 20 19 19 20 20 20 20 20 20 20 21 22 23 24 25 23 26 39 54
91 77 64 59 74 99 107 98 83 74 82 76 45 25 23 17 11 11 11 13 14 14 15 14 12 11 9 8 9 9 8 8 9 9 9 10 11 11 10 10 10 11 12 11 13 14 14 15 15 15 16 16 16 16 15 15 15 15 16 16 16 16 18 20 21 19 18 19 19 20 20 20 20 20 20 20 19 20 20 21 21 20 21 24 28
104 99 93 89 93 103 106 105 98 91 98 101 76 47 30 20 15 14 11 11 12 11 13 13 11 11 11 9 9 9 9 9 9 10 9 10 11 10 10 10 10 11 11 11 12 13 13 14 14 15 15 15 17 17 16 16 15 16 16 17 16 16 18 19 19 18 18 18 18 19 19 20 20 21 21 20 20 21 21 22 22 22 22 22 23
105 108 105 97 97 103 104 102 101 96 99 106 97 73 49 29 19 16 16 16 15 11 10 12 11 10 10 11 10 9 9 10 10 10 10 10 11 10 10 11 11 10 10 11 12 12 13 13 14 14 14 15 17 18 18 17 16 16 17 17 17 17 18 19 18 17 18 18 18 18 18 19 21 22 22 22 22 22 22 22 22 22 21 21 20
101 108 106 93 91 101 104 102 103 102 99 102 99 87 70 50 31 23 27 34 36 27 15 9 10 11 10 9 10 10 9 9 10 11 10 10 11 11 10 10 10 10 11 12 13 12 12 14 14 14 14 16 17 18 19 18 18 18 18 17 18 19 19 19 18 17 16 17 16 16 17 18 21 23 22 22 21 21 20 19 20 20 19 19 18
99 100 99 93 92 100 104 101 103 105 99 92 90 86 76 60 45 42 53 66 70 62 46 27 12 7 10 10 9 9 10 10 10 10 10 11 11 10 11 10 9 10 11 12 12 13 13 14 15 16 15 17 19 19 19 19 20 21 20 19 19 20 23 26 26 21 17 16 16 17 17 18 20 21 21 21 21 20 19 19 18 18 18 17 17
99 98 96 97 100 104 104 99 100 106 99 85 84 91 87 71 55 53 67 85 92 86 77 64 40 16 7 9 10 10 10 10 10 10 9 11 11 10 11 11 10 10 12 12 12 12 14 15 16 17 18 19 20 20 20 22 23 23 23 23 21 22 30 41 42 33 24 20 19 18 19 19 21 22 22 22 22 21 20 20 19 19 18 18 18
100 101 96 96 101 106 107 102 100 105 102 87 82 90 94 86 74 64 64 78 94 94 83 79 73 48 20 8 9 11 11 10 10 11 11 11 12 13 13 12 12 12 12 12 12 11 13 15 17 19 20 20 22 22 22 24 24 24 26 27 25 26 39 55 60 53 41 32 25 23 23 23 24 24 24 24 24 24 24 22 21 20 19 18 18
100 101 98 97 99 103 106 103 101 104 105 99 92 92 95 97 94 88 75 69 84 100 91 77 80 78 55 29 14 10 11 13 12 12 13 14 15 16 16 16 17 17 16 16 16 14 13 15 17 19 21 22 23 24 26 27 26 27 32 35 31 31 41 57 68 69 62 50 38 32 30 31 30 30 30 30 29 29 29 27 24 23 22 22 20
95 93 97 102 100 100 103 101 99 101 103 104 102 98 100 104 103 104 95 75 72 91 97 80 73 82 83 66 41 21 15 18 20 19 19 20 20 19 21 22 21 21 21 20 20 19 18 18 19 20 23 25 25 25 28 30 29 31 37 41 39 36 39 50 62 71 75 69 57 45 39 39 40 38 36 37 37 37 37 35 29 25 25 24 22
90 85 90 102 103 100 102 101 98 98 100 102 102 100 103 109 109 105 102 89 73 75 89 87 75 73 84 89 75 50 31 27 33 35 32 31 30 28 27 27 26 27 27 23 19 20 22 22 23 24 26 28 27 27 28 30 32 37 41 46 46 41 38 42 49 62 77 82 75 63 52 48 51 53 51 50 48 48 51 50 42 35 35 32 30
85 87 87 98 104 101 100 101 100 99 99 100 102 103 102 106 109 104 103 101 89 75 81 92 87 76 78 88 89 76 56 42 42 46 45 41 40 38 35 34 33 32 29 22 17 18 21 25 27 27 29 30 29 29 30 31 35 40 45 51 53 47 40 37 39 53 74 87 88 79 67 60 63 72 77 75 68 64 63 59 54 53 53 50 53
65 85 89 94 100 97 94 97 101 101 100 100 102 102 101 102 104 102 103 107 100 85 81 90 95 89 80 77 82 83 74 60 52 51 51 48 46 44 42 41 39 35 27 22 24 28 28 29 32 33 35 38 38 39 39 38 40 45 50 57 60 55 46 38 36 50 74 91 95 92 84 77 76 83 92 92 84 78 71 62 65 74 72 68 76
31 58 77 86 90 85 79 85 99 104 102 103 102 99 99 102 101 102 108 107 97 88 85 86 94 99 90 80 81 85 82 74 64 53 50 52 53 49 44 41 42 39 28 26 40 54 53 50 51 52 52 52 52 54 55 54 54 58 62 66 67 64 54 42 36 49 73 90 97 98 95 91 87 90 96 95 90 91 85 72 77 94 95 87 89
15 32 54 71 81 79 70 74 93 105 105 105 105 101 100 100 99 102 106 94 79 81 89 89 92 99 98 93 93 92 86 76 63 54 54 59 60 54 44 38 42 44 37 38 58 79 80 71 68 68 68 68 68 69 72 73 73 74 75 76 75 71 61 47 41 53 75 91 97 98 96 96 97 98 100 99 96 99 98 88 88 101 104 97 95
12 23 41 59 72 76 72 71 82 96 102 103 103 104 102 100 100 99 90 76 71 83 96 96 91 94 102 104 98 92 86 71 57 58 64 65 63 57 47 42 47 49 46 52 73 91 88 72 63 65 72 82 88 89 88 90 88 84 83 85 82 75 65 54 48 59 80 92 94 92 92 94 99 101 102 102 100 99 100 99 100 104 103 94 85
10 15 29 47 62 72 75 72 73 85 98 101 101 105 104 101 103 100 89 83 90 98 103 98 86 83 99 108 96 86 83 69 56 60 65 62 64 64 58 55 53 45 46 65 87 99 94 75 61 60 65 78 94 101 101 101 98 90 84 85 82 77 73 66 56 60 78 92 92 91 92 91 93 98 100 102 102 100 100 102 103 107 110 102 85
10 10 15 28 45 60 72 75 73 79 91 96 98 105 106 103 102 102 99 98 100 101 103 101 86 78 91 100 89 79 74 60 49 54 60 61 65 65 61 61 52 37 48 79 96 98 94 81 69 64 61 63 76 91 101 105 104 100 95 91 86 83 84 83 71 62 71 88 96 99 98 92 91 96 98 98 99 99 99 100 100 103 108 110 102
10 10 10 14 24 40 58 74 80 79 81 86 93 101 106 105 102 100 101 102 101 100 102 102 96 89 90 93 86 76 68 58 53 58 62 62 63 59 57 60 51 38 55 94 109 99 84 72 67 67 64 58 62 76 92 98 95 96 98 95 91 91 93 95 89 73 67 78 93 101 102 96 92 92 93 95 97 97 96 95 96 98 101 106 111
9 10 10 10 13 21 35 56 79 88 82 79 85 93 100 105 105 102 102 101 101 102 100 99 101 101 96 93 88 80 73 66 65 69 68 63 62 60 56 58 55 41 45 74 93 81 58 46 47 54 63 67 67 70 80 81 74 76 85 86 86 92 98 102 103 91 75 71 79 89 97 99 96 92 89 89 89 87 87 89 93 96 98 101 110
11 10 9 9 12 17 22 37 65 89 91 83 81 82 88 97 102 104 106 104 100 101 102 102 102 103 100 96 89 84 82 77 70 71 72 66 65 65 60 64 70 53 29 29 43 44 39 43 49 57 73 84 76 65 69 74 72 75 80 77 78 91 103 106 109 107 97 85 77 77 84 92 99 100 95 90 86 79 73 75 84 95 99 96 102
11 11 10 8 10 16 22 32 55 81 91 89 84 79 77 82 90 97 102 103 100 102 105 103 99 100 103 100 85 73 74 80 80 79 74 66 66 66 62 68 76 58 25 10 14 19 27 36 41 54 77 88 74 61 67 77 77 72 65 62 73 94 108 109 105 105 107 103 94 88 88 91 96 101 100 98 97 91 78 68 69 83 95 95 96
11 12 12 10 8 11 17 29 51 73 83 86 86 83 77 76 82 88 94 99 102 104 105 103 100 100 104 104 91 70 57 61 73 81 77 70 68 67 66 74 75 49 17 7 18 37 52 50 35 39 63 73 64 60 73 82 73 54 40 44 65 89 104 108 103 99 104 110 105 101 100 96 91 92 95 96 99 102 99 87 74 70 75 80 86
10 12 12 11 9 10 14 24 42 63 77 82 83 82 77 76 79 84 91 98 102 103 102 102 104 105 105 102 96 85 67 52 52 63 72 71 66 65 71 80 70 38 11 12 36 71 99 94 64 47 55 64 64 72 87 88 66 38 25 35 54 70 84 96 99 98 103 108 105 103 104 98 91 91 95 96 96 100 103 102 94 84 75 71 72
9 12 13 12 9 9 13 18 28 45 64 76 79 76 75 78 80 82 88 96 99 98 98 99 100 105 108 101 91 89 83 67 52 50 55 59 65 74 78 71 50 24 12 22 44 70 96 108 96 78 74 82 90 98 99 83 58 41 38 42 49 58 69 81 89 95 99 102 104 105 104 101 100 101 99 97 99 101 100 101 102 99 94 89 81
8 9 11 13 12 10 10 14 20 29 43 59 70 73 74 77 81 81 83 88 90 90 94 99 99 101 105 103 95 90 88 80 69 59 51 53 66 78 70 48 27 13 10 16 24 29 47 77 97 94 84 84 93 98 87 68 58 62 63 55 53 62 73 82 90 97 99 100 104 106 102 101 105 102 92 90 96 99 96 98 101 100 101 104 100
9 8 8 14 17 14 10 11 17 26 33 41 51 59 64 68 74 77 76 78 83 86 89 94 99 101 101 101 100 96 89 82 80 76 65 56 56 56 46 31 21 15 15 22 25 19 25 55 87 97 87 79 84 90 85 72 66 66 63 58 57 64 76 90 100 101 99 101 105 105 103 104 106 100 91 91 97 96 94 97 102 103 105 106 102
9 8 8 12 17 18 14 11 15 29 43 49 48 48 49 51 56 60 62 65 75 85 88 89 96 102 102 98 98 97 91 85 82 80 68 53 43 38 34 32 27 20 21 30 34 28 29 53 83 97 91 82 84 89 92 90 82 73 73 80 79 73 77 93 104 103 101 101 100 97 97 100 104 103 99 96 95 98 102 104 101 101 106 105 100
9 9 8 9 12 15 16 14 12 22 44 62 65 58 52 49 47 47 48 51 61 77 89 94 97 101 103 100 99 99 96 91 88 83 76 71 67 56 40 30 26 21 16 17 17 15 24 50 79 93 94 95 96 97 101 105 94 79 83 99 101 93 94 101 101 100 103 102 95 90 92 98 104 107 104 98 94 97 104 103 96 96 101 102 100
9 9 9 9 9 10 14 17 14 12 22 40 52 54 51 51 52 53 51 51 55 68 83 92 95 97 101 103 103 103 102 97 92 86 85 90 92 76 48 30 23 17 11 11 12 12 18 33 48 58 74 94 102 100 103 105 88 73 84 102 105 101 104 104 99 100 105 103 99 98 99 102 106 108 105 101 97 97 99 99 96 96 99 99 98
9 9 9 9 9 9 12 16 16 13 12 16 23 27 28 32 43 54 62 63 62 65 72 77 80 86 96 103 105 105 105 101 95 87 79 73 67 56 42 32 25 19 13 12 12 11 11 14 15 20 43 78 99 101 98 89 69 66 90 108 103 98 103 102 98 101 103 101 101 99 95 94 99 100 100 102 101 98 99 101 100 99 97 96 97
9 8 9 9 9 10 13 15 16 16 14 12 12 13 13 15 22 35 48 58 63 66 69 70 72 78 87 94 95 95 96 97 96 90 79 63 45 33 28 26 25 24 20 13 11 12 12 12 11 9 18 45 74 88 86 68 47 55 90 110 102 96 102 102 98 101 102 100 99 96 91 94 98 95 93 99 103 101 100 102 101 101 101 101 102
8 7 8 9 10 10 11 13 14 15 16 15 13 12 11 11 12 16 23 33 42 49 57 63 67 71 74 75 74 73 74 77 78 80 80 74 57 36 23 19 20 22 19 14 13 13 10 8 11 10 9 23 52 77 84 65 39 43 81 108 105 97 101 100 97 99 103 103 102 98 93 94 99 99 96 99 102 102 102 103 102 102 102 101 101
8 7 6 8 9 10 11 11 12 13 14 15 14 13 12 10 11 12 14 18 22 27 33 40 47 52 53 52 51 50 52 54 54 55 61 65 54 32 18 15 14 14 14 13 12 12 12 13 18 16 8 12 31 55 70 64 43 42 74 102 104 99 103 100 92 94 103 107 106 102 93 89 94 99 101 101 102 101 101 101 101 101 101 99 99
8 8 7 7 7 10 11 12 11 12 12 12 13 13 12 11 11 11 12 14 16 17 20 24 29 35 35 33 32 34 36 37 35 32 34 39 35 23 16 16 15 13 14 13 11 11 13 15 21 26 28 33 44 60 71 71 63 67 87 102 99 97 103 102 91 91 101 104 103 101 99 96 96 98 99 101 102 101 99 99 100 100 101 101 100
9 8 8 7 7 8 10 12 12 12 12 11 11 12 12 12 13 13 12 13 15 15 16 20 27 33 31 24 22 24 24 22 21 19 20 23 23 18 15 14 13 12 13 12 11 13 13 16 33 60 77 80 85 93 97 94 91 93 100 103 100 99 103 104 98 97 100 101 99 99 99 98 98 97 97 98 99 99 98 99 101 101 102 102 100
10 9 8 8 8 7 8 11 12 13 12 11 11 11 11 12 16 18 17 17 17 17 17 19 26 35 36 28 21 19 18 16 15 15 15 16 17 16 15 15 14 14 15 13 11 12 11 15 38 73 92 93 95 103 103 100 100 101 100 100 102 102 100 99 100 101 102 102 102 100 100 100 100 99 98 98 100 101 101 101 100 99 100 100 99
Wind_Speed
30 32 32 31 31 30 28 28 28 28 27 25 22 20 19 17 17 16 14 13 12 11 10 10 10 9 9 8 8 9 10 11 11 12 12 12 12 12 12 12 12 12 12 12 12 12 12 12 12 12 12 12 13 13 14 14 14 14 15 15 15 15 16 15 15 15 15 15 15 15 15 16 16 16 17 17 17 18 18 18 19 20 21 21 21
28 30 32 32 32 31 29 28 29 29 29 27 25 23 21 20 19 18 16 15 14 13 12 12 12 11 11 10 9 10 10 11 12 12 12 12 12 12 12 12 12 13 13 13 13 13 12 12 12 12 12 12 12 13 13 14 14 14 15 15 15 15 15 16 16 15 15 15 14 14 15 15 16 16 16 17 17 18 19 19 21 21 21 21 21
26 28 31 32 32 31 30 29 29 30 31 30 28 26 24 22 22 20 19 17 16 15 15 14 13 13 13 13 12 12 12 12 12 12 12 12 12 12 13 13 13 13 13 13 14 13 13 13 12 12 12 12 12 12 13 13 14 14 15 15 15 15 16 16 16 16 16 15 15 15 15 15 15 15 16 16 17 18 20 21 22 22 22 22 21
25 26 29 31 32 33 32 31 30 31 31 30 29 28 26 25 24 23 21 20 19 18 17 16 15 15 15 15 15 14 13 12 12 11 11 11 11 12 12 13 13 13 13 13 13 14 13 13 13 13 12 12 12 12 13 13 13 14 14 15 15 15 16 16 16 16 16 16 16 15 15 15 15 15 15 16 17 18 20 21 21 21 22 22 22
25 24 26 29 32 34 34 33 33 32 31 30 29 28 27 26 25 24 23 22 21 20 19 18 17 17 17 17 17 16 14 13 12 11 10 10 11 11 12 12 12 13 13 13 13 13 13 13 13 13 13 13 13 13 13 13 13 14 14 14 15 15 15 16 16 16 16 16 16 16 16 16 16 16 16 17 17 18 19 20 21 21 22 22 22
26 24 24 26 31 34 34 35 34 32 30 29 29 28 28 27 26 24 24 23 22 22 21 20 19 19 19 20 19 17 15 13 11 10 10 10 10 10 11 11 12 12 13 13 13 13 13 13 14 14 14 14 15 15 14 14 14 14 14 15 15 15 15 16 16 16 16 16 16 16 16 17 17 17 17 18 18 19 20 20 21 21 22 22 21
27 26 24 25 28 32 34 35 34 32 30 28 28 28 28 28 27 25 24 24 23 24 24 23 22 21 21 21 20 18 15 13 11 10 9 9 9 9 10 10 11 12 12 13 13 13 14 14 14 14 15 15 15 16 16 16 16 15 15 16 16 16 16 16 16 16 16 16 16 17 17 17 18 18 19 19 19 19 20 20 21 22 22 22 21
28 28 26 25 26 29 32 33 33 31 29 28 28 29 29 29 28 27 26 26 25 25 24 23 23 22 22 20 19 18 16 13 11 9 9 9 9 9 9 10 10 11 12 13 13 14 14 14 15 15 15 15 15 16 16 17 17 17 17 17 17 17 17 17 17 16 16 17 17 18 19 19 19 20 20 20 19 19 20 21 23 23 22 22 21
29 29 28 27 26 27 29 30 31 31 30 29 30 30 31 30 29 28 28 28 26 25 23 22 22 21 21 19 17 17 16 13 12 10 9 9 9 9 9 9 10 11 12 12 13 13 14 14 15 15 15 15 15 15 16 17 17 18 18 18 18 18 18 18 17 17 17 18 19 20 20 21 21 21 20 20 20 20 20 22 24 25 24 22 20
30 30 30 29 27 26 27 29 30 30 30 30 31 31 32 31 30 30 29 29 27 25 23 21 21 20 19 18 17 16 15 14 13 11 10 10 9 9 9 9 9 10 11 12 12 13 13 14 14 15 15 15 15 16 16 17 17 18 18 18 19 19 19 19 19 19 19 20 21 22 22 21 21 21 20 20 20 20 21 23 25 25 25 22 20
32 31 31 29 27 26 28 29 29 29 30 30 31 31 31 31 30 30 29 28 27 26 24 23 21 19 18 17 17 16 14 14 14 12 11 10 9 8 8 8 8 9 10 11 12 12 12 13 14 15 15 15 16 16 17 17 17 18 18 18 19 19 20 20 21 21 22 23 24 24 23 22 21 20 20 19 20 21 22 23 24 24 23 22 20
33 33 32 30 28 28 29 30 30 30 29 29 29 30 30 29 29 28 27 27 26 25 25 24 21 19 19 18 16 15 13 13 14 13 11 9 8 8 7 7 7 8 8 9 10 11 12 13 14 15 15 16 17 17 18 18 18 18 18 18 18 19 19 20 21 22 23 24 25 25 25 23 22 21 20 21 22 22 22 22 22 22 22 22 20
36 35 33 30 28 28 28 29 30 29 28 27 27 27 27 28 28 27 27 26 25 24 25 24 22 20 19 17 15 13 13 13 13 12 10 9 8 7 7 7 7 7 7 8 9 10 11 13 14 15 16 17 18 18 19 19 19 18 17 17 18 18 19 19 21 23 24 24 24 25 25 25 24 24 24 24 24 24 24 23 22 21 21 21 20
38 36 34 31 30 29 27 28 29 28 27 26 25 25 25 26 26 26 25 25 25 25 25 23 22 21 19 17 15 13 13 13 13 11 10 9 8 8 8 7 7 7 7 7 8 9 10 11 13 15 16 17 18 19 20 20 20 20 18 18 18 19 19 19 20 23 24 25 24 24 24 25 25 25 26 25 24 24 24 24 23 22 20 20 20
40 37 35 34 33 33 32 31 30 29 28 26 26 26 27 26 25 24 24 25 25 25 24 23 22 21 19 18 16 14 13 13 13 12 10 10 10 10 9 8 7 7 7 7 8 8 9 11 12 14 16 17 18 19 20 21 22 22 21 20 21 21 20 20 21 23 24 24 24 23 23 24 24 24 25 25 23 23 23 24 24 23 21 21 21
42 40 39 38 37 37 36 36 35 33 30 28 29 31 32 30 27 25 24 24 24 24 24 24 22 20 18 17 17 16 13 13 14 13 12 12 12 12 11 9 8 8 8 8 8 9 9 10 12 13 15 17 18 19 21 22 23 23 23 23 24 24 23 22 23 24 24 23 23 22 22 23 23 23 24 24 23 22 22 22 23 23 22 21 22
45 45 44 41 40 40 41 41 39 37 34 32 33 35 36 34 32 28 26 25 24 24 24 23 22 20 19 19 19 17 15 14 15 15 14 14 15 14 12 10 10 10 9 9 9 10 10 11 12 13 14 16 17 19 21 22 23 24 25 25 26 26 24 24 25 25 24 23 22 22 21 22 23 23 23 23 23 22 21 21 22 22 22 22 22
49 50 50 46 43 43 45 45 44 41 38 37 38 38 38 37 35 32 29 28 26 26 24 23 21 21 21 21 20 19 17 16 17 17 17 16 17 16 13 12 12 11 9 9 10 11 11 12 12 13 15 16 17 19 21 22 23 23 24 26 27 26 25 25 26 25 23 22 22 22 21 21 22 22 23 23 24 23 22 21 21 22 22 22 23
51 53 52 48 44 44 48 50 48 46 44 42 42 41 39 38 37 34 32 31 29 27 25 24 23 23 23 22 22 22 20 18 18 19 18 18 18 17 15 14 14 12 10 10 11 11 12 12 13 15 15 16 17 18 21 23 23 23 24 25 27 27 27 27 26 25 23 22 22 22 22 21 22 22 23 23 24 24 23 22 21 22 22 22 23
49 52 51 47 44 44 49 52 51 49 48 47 44 42 39 38 38 37 36 34 32 29 27 26 26 25 24 24 23 24 23 21 20 21 20 19 19 18 17 16 15 12 11 11 12 12 12 12 14 15 16 17 18 19 21 23 23 23 24 25 27 28 29 29 28 25 23 23 22 22 21 21 22 23 23 23 25 25 24 23 23 23 23 23 23
47 47 46 44 43 44 47 52 54 51 49 49 46 43 41 40 40 39 39 38 36 33 31 30 28 27 26 25 25 25 25 24 23 22 21 20 20 19 18 18 15 12 11 12 13 13 13 13 14 15 16 17 19 20 22 23 24 24 24 25 27 29 30 30 29 26 25 24 23 23 22 21 22 23 23 24 25 25 25 24 24 24 23 23 22
50 45 41 37 41 46 49 52 53 48 46 47 48 47 45 43 42 41 40 39 38 37 36 34 32 29 28 27 26 27 27 26 24 23 22 21 20 20 20 19 16 14 13 13 13 12 13 13 14 15 16 18 20 21 22 23 24 25 25 25 27 28 29 29 29 27 26 26 25 24 23 22 22 23 24 25 26 26 25 25 25 24 23 22 21
58 52 48 43 43 47 49 48 47 46 47 49 50 49 48 47 45 43 41 40 39 38 39 38 36 32 30 29 29 28 28 26 25 24 23 22 22 22 22 22 19 17 16 14 13 13 13 14 15 16 16 18 21 22 23 24 24 25 26 26 26 28 29 29 28 28 28 27 27 26 24 24 24 25 25 25 26 26 26 26 25 24 22 20 19
67 62 59 54 50 47 46 46 47 49 52 55 54 52 50 50 47 45 43 41 39 38 39 40 39 36 33 31 30 30 29 27 24 23 23 23 24 24 24 23 21 19 17 17 17 16 16 16 16 17 17 19 21 23 24 24 25 26 27 26 27 28 29 30 30 29 29 28 28 27 26 25 26 27 26 25 25 26 27 26 25 23 21 19 16
74 70 67 63 58 52 49 49 52 53 53 55 58 57 55 53 51 48 45 43 42 40 39 40 41 40 37 34 33 32 31 28 25 23 23 24 25 26 25 24 22 20 20 20 20 19 18 18 18 19 20 21 22 24 25 25 25 26 27 27 27 28 30 31 31 31 31 30 29 28 27 27 28 29 28 26 25 25 25 25 23 22 20 17 13
78 76 73 69 66 62 55 54 57 58 55 56 60 61 60 58 55 51 48 46 45 44 42 41 43 44 42 40 37 35 33 32 28 25 25 26 27 28 27 25 23 21 21 22 21 21 21 21 21 23 24 25 25 25 25 26 26 27 27 27 27 29 30 31 32 32 32 30 28 27 28 28 29 30 29 27 25 23 22 21 21 20 18 13 11
82 81 78 74 72 70 66 62 62 62 60 59 61 63 62 60 58 55 51 49 48 48 47 45 45 46 47 46 43 39 36 35 33 30 29 29 29 29 29 28 25 24 23 22 22 22 22 23 25 27 29 29 28 27 27 26 26 26 27 27 28 29 30 31 31 30 30 29 28 28 28 28 30 31 29 27 25 23 21 19 17 17 15 12 10
83 84 83 80 76 75 74 71 69 68 66 65 64 64 62 60 59 58 55 51 48 48 49 48 47 47 49 49 47 44 40 38 39 37 34 32 31 31 32 31 29 27 25 23 22 22 23 24 27 29 30 30 29 29 28 27 26 25 26 27 28 29 30 31 30 28 29 30 30 30 29 29 31 31 29 28 26 24 23 19 15 16 17 13 11
85 85 86 85 81 79 78 76 75 74 72 69 68 67 65 62 61 60 59 55 50 48 49 49 48 49 50 49 49 47 45 45 45 43 39 36 34 33 32 30 30 30 29 25 24 23 23 24 25 25 25 25 27 27 27 26 25 24 24 25 27 29 31 31 29 28 29 30 29 28 28 29 31 31 30 30 28 27 26 23 19 21 24 22 18
87 85 86 86 85 83 81 79 78 78 76 73 72 71 68 64 62 61 59 56 51 49 49 50 49 49 50 50 50 50 49 49 49 46 43 41 39 35 32 31 31 32 31 28 25 24 23 22 22 21 20 21 22 23 24 24 24 23 23 24 27 30 31 31 28 27 29 29 27 26 25 27 29 30 30 30 30 30 31 28 27 32 35 31 28
90 88 87 87 87 86 83 82 81 81 79 76 74 74 71 67 63 61 61 58 53 48 47 48 50 50 50 52 53 53 52 52 52 51 48 45 40 37 35 33 33 33 32 28 26 26 26 25 23 22 20 20 20 21 21 21 21 22 22 23 27 30 31 31 28 27 28 27 26 26 25 25 26 28 28 28 29 30 31 30 31 34 34 29 27
94 92 90 89 89 88 86 84 83 83 82 80 78 76 75 71 68 67 67 66 61 55 50 50 51 52 53 54 55 55 55 55 55 54 50 46 42 40 38 36 35 34 31 28 27 28 30 30 29 26 24 23 24 23 23 23 23 23 23 24 27 29 30 31 30 28 27 26 25 27 27 25 26 28 29 28 27 27 27 27 26 26 26 25 26
97 95 93 92 91 91 89 86 85 84 85 83 81 80 78 76 75 75 74 72 69 64 59 56 55 55 55 56 57 57 57 57 57 54 51 47 44 42 40 38 37 34 30 28 28 31 33 34 34 31 28 27 27 26 26 27 27 28 27 28 30 30 31 33 33 32 29 25 24 25 26 26 27 29 31 31 29 27 26 26 25 25 25 27 30
100 99 97 95 94 93 92 91 88 87 86 86 85 83 81 79 78 78 78 76 74 71 67 63 61 59 58 58 58 59 59 58 57 55 51 48 46 43 41 40 39 36 34 33 34 36 38 38 37 35 33 31 29 28 29 29 30 31 31 33 34 35 35 37 38 36 32 29 27 27 26 26 28 30 31 32 33 32 32 30 27 28 29 30 32
102 102 101 98 96 94 94 94 93 90 89 88 87 86 84 82 81 80 79 78 77 74 72 69 66 64 61 60 60 61 61 60 58 55 52 50 48 45 43 41 40 39 39 38 38 40 41 41 40 39 36 33 30 30 31 32 32 33 33 35 37 37 37 40 42 40 36 34 35 34 32 31 32 34 34 34 34 36 37 35 32 31 32 34 35
105 104 103 101 99 96 94 95 96 95 92 90 89 88 87 85 83 82 81 80 78 77 75 72 69 67 65 63 63 63 63 62 59 56 54 52 50 47 44 43 42 42 41 39 39 41 42 42 42 41 38 36 34 34 33 34 35 36 35 35 37 38 38 40 42 41 39 37 36 36 35 34 36 37 38 38 38 38 38 37 35 34 35 37 38
106 105 104 104 102 99 96 96 98 98 95 93 91 90 89 87 86 84 83 81 80 79 77 75 72 70 69 68 67 66 65 63 61 58 56 54 51 49 47 45 43 43 42 41 41 41 42 43 43 43 41 40 40 39 36 35 37 38 36 35 36 38 39 39 39 39 39 37 35 34 34 35 37 39 42 44 46 46 45 42 40 38 39 40 41
107 106 105 105 105 103 100 98 99 100 98 95 93 92 90 89 88 86 85 84 83 82 80 77 75 73 72 72 72 70 68 65 63 61 58 56 53 51 49 47 45 44 44 44 43 40 40 42 42 43 45 46 46 44 40 38 39 40 38 36 37 38 39 39 39 39 39 36 34 35 37 38 39 41 44 47 50 51 49 47 44 41 39 40 42
110 108 107 106 107 107 105 102 100 101 101 98 96 93 92 90 89 88 87 86 85 83 81 79 77 75 75 74 74 73 71 69 66 64 61 57 55 53 51 49 48 46 46 46 44 42 42 42 41 43 47 50 49 47 44 42 41 40 39 37 37 38 40 39 40 42 42 38 35 36 39 41 43 43 43 45 49 52 50 47 42 39 39 41 43
112 111 110 108 107 108 108 105 101 100 101 101 99 96 94 92 90 89 88 87 86 85 83 81 78 77 77 77 76 75 73 70 68 66 63 60 58 57 55 52 50 49 49 48 47 46 46 45 42 42 44 45 44 44 44 42 41 40 39 39 40 42 42 40 41 43 43 40 38 41 43 43 42 41 40 40 44 49 49 44 40 41 43 43 42
115 113 112 109 107 107 108 107 104 101 100 101 101 100 98 96 94 91 90 88 87 87 85 82 80 80 80 79 78 77 75 71 68 66 65 62 60 59 57 55 53 52 52 52 50 49 49 48 46 44 41 38 38 41 42 41 41 42 42 42 44 46 46 44 43 43 42 41 42 43 43 40 37 36 38 39 42 46 47 44 45 48 48 45 45
118 115 113 111 109 107 107 108 107 104 101 99 100 100 100 99 98 96 94 92 90 89 88 85 83 81 81 80 80 79 77 73 69 66 65 63 62 60 59 57 56 55 55 53 52 51 50 50 50 48 44 40 40 42 43 43 44 45 45 45 46 49 50 47 44 42 43 44 44 42 40 38 37 38 39 41 44 47 47 46 47 48 46 45 48
120 118 115 113 112 110 108 108 109 108 105 103 101 100 99 99 99 99 98 97 96 94 92 89 86 84 83 82 81 81 79 75 72 69 68 66 64 63 61 60 60 60 59 57 55 54 53 52 52 52 51 49 47 46 47 48 48 48 47 47 48 51 52 49 46 45 45 44 42 40 38 39 43 46 45 43 47 52 53 51 51 50 49 49 51
123 120 118 115 114 113 111 110 110 111 110 108 106 103 101 100 99 99 99 99 99 98 96 94 91 89 87 85 84 82 80 78 76 75 74 72 70 68 66 65 64 64 62 61 59 57 56 55 56 56 57 57 56 54 52 52 51 51 50 50 51 53 53 50 47 47 46 43 41 40 39 40 47 54 52 46 44 48 49 49 51 54 56 55 54
126 123 120 117 115 115 114 112 110 110 112 113 111 109 106 104 102 101 100 100 100 100 99 97 96 94 92 90 88 86 83 81 80 79 79 77 74 72 71 70 68 67 65 63 63 62 61 60 60 60 59 59 58 57 55 54 53 52 53 53 54 56 55 51 47 47 47 44 41 41 42 45 52 57 55 49 44 43 42 44 49 53 54 54 55
128 125 123 120 117 116 116 116 113 110 110 112 113 113 111 108 105 104 103 102 101 101 100 100 99 98 97 95 93 91 88 86 84 83 82 80 78 75 74 72 71 70 68 67 66 66 64 63 64 64 62 61 60 58 56 54 55 56 58 58 58 59 56 51 47 48 49 46 43 43 46 50 53 55 54 53 50 48 47 50 54 57 58 59 63
130 127 124 122 120 118 118 118 116 114 111 110 111 113 113 111 109 107 106 106 105 104 103 102 102 101 100 99 98 96 94 91 89 88 87 85 82 79 77 75 74 73 72 70 70 69 68 67 66 66 65 63 62 60 58 56 57 60 62 61 60 59 58 53 50 50 52 51 48 48 51 53 54 55 55 55 54 54 55 58 62 64 65 66 68
131 128 126 124 122 121 120 119 119 117 115 113 111 112 113 113 112 110 109 109 108 107 106 105 105 105 104 103 101 100 98 95 93 91 90 88 86 82 80 79 77 76 74 73 72 70 69 68 68 68 67 67 66 65 64 64 63 62 62 61 59 57 56 53 49 49 53 55 54 52 53 54 56 57 58 59 61 62 63 65 64 63 62 62 64
132 129 127 126 124 123 122 121 120 120 118 117 114 113 112 112 113 113 112 111 111 110 109 108 107 107 106 105 104 102 100 98 96 94 92 90 88 85 83 81 79 77 76 75 74 72 69 68 68 68 66 66 68 69 68 68 65 60 58 59 60 59 57 54 51 50 52 54 54 53 54 55 55 56 58 62 65 66 67 66 63 59 59 62 66
132 131 129 128 126 125 124 123 123 122 120 119 117 116 114 113 112 112 113 113 113 111 110 109 108 108 108 107 105 104 102 100 98 96 94 93 91 89 86 84 82 81 79 77 75 73 70 67 67 64 58 57 62 67 68 66 65 61 59 59 61 62 63 62 61 59 57 55 52 53 56 58 58 58 60 62 62 62 66 69 69 68 68 70 72
133 132 131 130 128 127 126 125 125 124 123 121 119 118 117 115 113 112 112 112 113 112 111 110 109 109 108 108 106 105 103 101 99 97 96 94 93 91 89 86 84 83 81 79 78 75 72 69 67 63 57 54 59 64 65 64 64 63 62 62 64 66 68 68 67 67 67 65 62 61 63 65 65 65 65 63 61 63 68 73 75 75 77 78 80
Wind_Direction
221 219 217 216 215 216 216 216 217 219 222 225 226 227 228 231 233 236 237 239 244 247 251 257 264 272 282 292 303 314 322 328 331 333 336 336 336 336 336 337 338 338 340 344 348 351 353 354 354 354 354 352 351 350 350 351 353 356 356 356 355 355 357 359 1 4 7 9 10 11 11 11 10 9 8 8 6 5 4 1 359 0 2 0 358
224 222 220 218 218 218 217 216 216 217 221 224 225 226 228 231 235 237 238 239 243 246 251 258 264 271 277 284 292 302 311 318 322 325 327 328 328 328 329 330 331 333 334 337 341 345 348 351 352 353 353 352 351 350 350 350 352 353 354 353 353 353 354 355 357 359 1 2 3 4 5 5 5 4 3 2 0 359 358 356 356 358 357 355 353
226 224 223 222 221 221 221 220 218 218 221 223 224 225 227 230 234 238 239 239 240 243 247 252 259 266 273 279 286 293 301 310 315 317 318 320 321 321 323 325 327 329 331 333 336 340 343 346 348 350 350 350 349 348 348 349 350 350 350 350 350 350 351 352 353 353 354 355 355 356 357 357 357 357 356 356 354 353 353 353 353 353 351 349 348
230 225 225 225 224 223 223 223 223 222 223 224 226 226 226 228 232 237 239 240 241 242 245 248 253 261 269 275 280 285 292 300 306 308 310 313 315 316 319 322 325 327 329 332 334 336 339 341 342 344 345 345 345 345 345 345 345 346 346 345 345 345 346 347 347 348 348 348 348 347 347 348 348 349 349 349 349 349 349 349 350 348 346 345 345
236 230 226 226 227 226 225 226 226 227 227 228 229 231 231 231 233 236 238 241 244 247 251 255 257 261 267 272 276 280 284 289 293 297 301 304 308 311 315 319 322 325 327 328 330 332 333 335 336 337 338 340 340 341 341 341 341 341 340 339 340 340 341 342 342 342 342 341 340 338 338 338 339 341 342 344 345 346 346 347 347 345 344 344 344
240 236 230 228 229 230 229 229 229 229 230 230 231 233 235 236 238 239 242 246 250 254 260 265 268 270 270 272 274 275 276 278 281 286 290 295 300 305 311 315 318 321 322 322 323 324 325 326 327 329 331 333 335 336 337 336 336 335 335 334 335 336 337 337 337 336 335 333 332 331 331 332 333 335 337 339 341 342 343 343 345 345 345 345 346
237 237 233 230 232 234 234 234 234 234 233 233 234 235 236 238 240 242 245 250 254 258 264 269 274 276 275 273 272 271 270 269 271 275 279 285 293 299 305 310 312 314 314 315 316 317 319 320 321 322 324 326 328 330 330 330 330 330 331 332 333 334 334 333 332 331 329 328 326 326 326 328 330 331 332 334 336 337 338 339 342 345 346 346 346
230 233 233 231 232 235 237 238 240 239 238 238 237 238 239 240 241 243 245 249 253 257 263 268 272 274 274 272 269 267 266 265 263 265 269 275 282 289 295 300 304 306 307 310 313 315 316 318 320 320 321 322 322 322 322 322 322 323 325 327 329 331 332 332 331 329 327 326 325 324 326 328 330 331 331 331 331 332 333 335 338 343 347 348 347
223 227 229 229 228 230 234 237 239 240 240 239 239 241 243 244 245 245 246 248 252 255 258 262 265 267 268 267 264 262 261 261 259 257 258 264 270 276 283 290 296 300 304 309 313 316 319 322 323 324 325 324 323 321 319 318 318 319 320 320 321 323 324 326 327 327 326 324 323 323 325 329 331 333 332 331 330 330 333 335 336 340 344 348 348
222 222 225 226 224 222 225 229 232 234 236 237 239 241 244 247 248 248 249 249 251 253 254 255 256 258 260 259 257 254 253 254 256 253 252 256 260 266 273 281 288 295 303 309 314 319 324 326 328 330 331 331 330 328 325 324 323 322 321 320 319 317 317 317 318 318 318 317 317 317 321 326 331 333 333 333 332 333 336 338 338 338 340 343 345
223 223 225 225 223 219 220 222 225 227 229 231 235 238 241 245 248 250 250 251 250 251 251 251 250 250 252 251 249 247 244 246 250 251 249 249 253 258 266 273 283 292 300 307 313 321 327 330 332 335 336 337 337 335 333 331 329 327 326 324 322 319 318 316 314 311 310 310 311 314 318 324 328 331 333 333 333 334 337 339 340 340 340 339 340
224 225 225 224 222 219 217 219 223 225 227 228 230 233 236 240 245 249 252 253 252 252 251 250 248 247 247 246 243 241 239 240 245 246 245 244 245 252 260 268 278 287 296 305 313 321 328 332 335 337 338 339 341 341 338 335 333 331 330 327 324 322 320 319 315 311 309 309 310 314 317 320 322 325 326 327 327 329 332 335 337 339 339 337 335
224 224 225 224 225 222 217 218 222 225 230 233 232 232 234 235 238 242 247 251 253 253 253 252 251 249 247 246 243 240 238 239 242 243 243 242 242 246 253 262 271 281 292 302 313 321 328 333 336 339 340 342 344 343 340 337 335 333 332 328 324 321 320 319 315 312 310 311 314 316 317 318 318 318 318 319 321 322 325 326 327 329 332 332 331
224 223 223 223 227 229 226 223 223 224 227 233 237 238 238 234 232 232 235 240 245 247 249 252 254 254 253 252 251 246 240 240 243 243 243 244 246 247 251 258 267 277 290 303 313 323 329 333 336 338 340 343 344 342 340 339 338 336 333 327 322 320 319 317 313 310 311 316 320 322 319 319 319 317 316 318 320 321 321 321 320 321 323 323 323
221 221 222 224 228 233 234 230 227 225 223 225 232 238 240 237 232 227 227 230 235 240 245 250 253 255 256 258 258 254 249 248 249 249 248 249 251 253 257 263 272 282 294 306 317 326 329 332 335 336 338 341 341 341 340 340 341 340 335 330 326 323 321 317 311 309 314 319 323 324 321 319 319 318 317 319 320 321 320 318 317 319 320 317 314
220 219 220 223 227 232 235 234 232 229 225 221 223 228 234 235 232 227 224 225 228 232 237 243 247 251 255 259 260 259 257 255 254 254 253 253 255 257 263 271 280 289 301 314 323 326 325 328 332 333 334 337 337 338 338 339 343 343 339 335 332 329 326 319 312 314 319 322 323 323 321 318 318 318 317 318 318 318 318 317 317 319 319 316 312
221 220 220 222 225 229 232 235 235 232 228 225 223 224 228 232 232 229 226 225 226 227 230 235 240 245 250 253 255 255 253 252 254 256 256 255 257 262 270 278 284 291 305 317 323 322 321 324 327 328 330 332 333 333 333 336 342 344 341 338 336 334 330 320 315 319 324 323 321 320 319 317 316 316 316 315 315 316 316 317 318 318 317 315 314
220 219 219 219 221 225 229 232 233 232 231 229 227 226 227 230 232 231 229 227 227 227 227 229 232 237 241 245 248 249 246 245 249 254 256 258 262 267 274 280 283 292 306 315 317 316 319 322 323 323 326 327 327 328 328 331 339 343 341 338 336 335 329 320 318 322 324 321 319 317 316 315 314 313 313 313 313 314 317 319 319 317 316 316 318
220 220 218 217 219 223 226 227 229 230 231 232 231 229 228 230 232 233 232 231 230 228 228 228 228 230 234 238 243 246 245 243 245 249 254 258 262 268 274 278 282 293 305 310 310 311 317 321 319 319 322 323 322 323 324 328 334 339 339 336 335 334 329 323 321 323 321 319 317 315 315 314 311 310 311 311 311 313 317 319 318 316 316 319 322
219 221 223 224 224 224 224 225 227 229 230 232 234 234 231 231 232 233 235 236 236 234 233 231 230 230 232 235 240 245 246 244 244 248 251 255 260 265 270 275 282 293 303 303 302 307 316 319 315 314 317 319 318 319 321 325 330 333 334 333 332 333 330 326 324 322 319 316 315 314 314 313 309 307 309 309 309 312 316 318 317 317 319 322 326
212 218 224 229 231 230 229 226 226 228 231 233 235 236 235 234 233 234 235 237 239 240 240 239 237 234 233 235 239 244 246 245 246 249 251 254 258 264 268 272 280 289 294 295 298 305 313 315 312 312 314 314 314 316 319 322 325 328 329 329 330 331 331 328 325 321 317 314 313 312 313 311 308 307 308 308 309 312 315 316 316 318 321 324 329
206 210 215 222 227 230 232 229 227 230 236 238 238 238 237 235 234 234 235 237 239 241 243 244 244 241 238 237 237 241 245 246 246 250 254 257 261 265 268 271 277 281 284 288 297 304 307 307 306 308 310 309 310 312 315 318 320 323 325 325 327 328 328 326 323 319 315 313 311 311 311 310 307 306 306 308 310 312 313 315 316 317 320 324 329
206 206 208 213 218 222 226 227 225 227 234 236 236 238 239 237 235 235 236 236 237 239 242 245 247 247 244 242 241 242 245 246 247 249 254 258 261 263 267 272 276 279 282 288 295 298 300 300 301 303 303 302 304 307 309 313 316 319 320 321 322 323 322 322 321 317 313 311 310 309 309 309 307 306 306 308 310 310 311 313 315 315 317 322 329
209 208 210 214 216 217 219 218 217 223 230 232 231 232 235 236 236 236 237 236 236 237 240 243 246 247 246 247 247 246 246 247 248 250 253 257 260 262 266 271 276 281 286 290 292 294 297 300 302 302 299 297 298 302 304 308 313 314 315 317 318 317 317 318 318 315 311 309 308 308 308 307 305 304 306 308 309 310 311 313 313 311 312 318 328
212 211 213 216 217 217 215 211 212 219 228 230 230 230 230 233 235 235 236 236 235 235 237 240 242 243 244 247 249 249 248 248 251 254 259 261 262 263 265 270 275 280 284 289 294 297 299 301 302 301 296 292 293 297 301 305 309 309 311 313 313 312 313 314 315 315 312 310 309 307 305 304 302 302 304 305 306 307 311 312 310 307 308 313 325
214 212 214 216 217 216 215 210 211 217 223 226 228 229 230 231 233 234 235 237 236 234 233 236 239 241 242 245 247 248 248 249 251 258 264 266 267 267 268 271 273 274 279 291 302 304 304 302 299 296 291 289 292 295 298 302 304 305 307 309 308 308 310 311 312 315 317 316 311 306 302 300 298 298 300 301 303 306 308 308 307 304 303 308 325
215 214 215 216 215 216 216 214 214 218 221 223 225 227 229 230 231 232 235 238 238 234 231 231 235 238 240 242 245 246 247 248 249 254 262 268 271 272 272 272 272 274 282 297 307 310 309 303 297 293 292 292 293 295 296 297 299 301 304 305 304 305 305 305 308 315 321 322 316 307 302 298 295 295 297 298 301 303 303 302 306 310 307 304 322
216 216 216 216 215 215 217 217 217 219 222 223 224 225 226 227 229 230 232 235 237 235 231 229 232 236 239 242 243 244 245 246 247 250 257 266 273 274 274 274 275 278 285 298 309 312 309 303 298 296 296 296 295 295 295 296 298 299 301 302 301 301 300 301 304 312 320 321 315 309 306 302 298 298 299 300 302 306 304 296 298 313 316 311 321
217 217 217 218 217 216 217 218 219 220 222 223 224 225 226 226 228 230 230 231 235 236 233 229 229 234 238 241 242 243 243 245 246 249 254 262 268 270 272 277 281 283 286 297 309 310 305 303 303 303 302 302 301 299 299 299 299 298 297 297 296 295 296 299 304 310 315 314 309 307 308 307 304 303 304 304 306 309 307 296 286 296 304 302 311
218 218 218 218 219 218 217 218 219 220 222 224 225 225 226 227 230 231 230 229 232 234 232 229 229 233 237 240 242 243 243 245 247 249 251 256 261 265 269 277 284 286 288 294 303 302 296 295 300 305 308 310 309 307 307 306 304 300 295 293 291 292 295 298 302 306 310 308 303 302 305 306 305 303 302 302 302 304 305 298 286 285 287 286 292
219 219 218 218 219 219 218 218 219 219 221 223 224 225 226 226 227 228 227 229 234 236 233 231 232 234 237 239 241 242 242 244 246 247 248 252 257 260 264 271 279 284 287 290 294 291 286 286 291 296 301 307 310 311 311 312 310 307 301 295 292 293 296 298 297 298 301 303 301 300 300 302 303 301 298 296 295 296 298 296 288 282 281 281 285
219 219 219 219 219 219 219 219 219 220 221 222 223 225 225 225 225 225 226 230 236 239 238 236 236 236 237 239 241 242 242 244 246 247 248 251 254 257 260 265 272 279 283 285 284 281 280 284 288 289 291 297 304 309 308 306 305 307 306 300 296 296 297 295 290 287 290 297 302 299 295 296 301 303 301 299 295 289 287 286 283 279 280 288 295
219 219 220 220 220 220 219 220 220 221 222 222 223 224 226 226 225 226 229 232 236 239 239 239 238 238 238 240 242 244 244 246 247 248 249 252 253 256 259 263 268 273 276 274 273 273 276 281 286 288 289 291 296 302 303 301 300 303 304 301 298 297 295 291 287 282 279 287 299 301 296 295 301 304 304 302 300 296 290 283 276 273 277 286 294
220 219 220 221 221 220 220 220 221 222 222 223 223 224 226 227 227 228 230 233 235 237 238 238 238 239 240 241 243 245 245 246 247 248 250 252 254 256 259 262 266 270 272 270 269 273 278 283 286 290 291 289 290 294 295 295 298 301 301 300 298 296 291 287 286 285 281 279 284 291 294 298 304 307 305 302 301 303 304 298 286 278 278 284 292
223 221 221 221 221 221 220 220 221 221 222 223 224 224 225 227 229 230 232 233 235 236 236 237 238 239 241 242 243 244 245 246 246 247 249 251 253 255 257 260 264 271 275 276 276 279 283 286 289 291 291 290 292 294 291 290 294 297 297 296 296 295 291 286 286 290 290 282 277 279 285 291 298 304 306 303 300 300 303 303 297 289 285 288 292
224 223 222 221 222 222 221 220 220 221 222 223 224 224 225 227 229 230 232 233 235 236 236 237 238 239 240 241 242 244 245 246 246 247 249 250 252 254 256 258 263 270 275 278 279 280 283 286 288 288 286 286 292 296 293 289 290 293 293 293 294 294 293 289 287 290 292 288 282 281 282 285 289 295 300 303 301 298 295 296 297 294 291 291 292
226 224 223 222 222 222 222 221 220 220 222 223 224 225 225 227 228 230 231 233 234 235 237 238 239 240 241 241 242 243 245 246 246 247 249 250 252 253 254 257 262 268 273 275 276 279 280 281 282 282 282 283 288 291 290 288 289 291 292 292 293 293 292 290 290 291 291 290 289 287 286 286 285 286 290 294 297 296 293 290 290 289 290 292 294
226 226 225 223 222 222 222 222 220 220 221 223 224 225 226 227 228 229 230 232 234 235 237 238 239 240 240 241 242 243 245 247 247 247 248 250 252 253 255 258 262 267 270 273 275 278 279 279 279 279 278 278 282 285 286 289 291 292 292 291 291 290 289 289 291 293 292 290 289 288 287 285 283 282 284 289 293 294 293 289 287 287 288 291 293
225 226 226 225 224 223 223 222 221 220 221 222 224 226 227 227 228 228 229 231 233 235 237 239 240 240 240 241 242 244 245 247 248 248 249 251 252 253 256 259 263 265 268 271 274 277 278 279 280 277 273 273 278 282 286 290 292 291 291 292 291 291 290 290 289 290 290 289 288 288 287 283 280 282 287 291 291 290 288 285 286 290 293 295 294
224 224 226 226 225 224 224 223 223 222 221 222 223 225 227 228 228 229 230 231 233 235 236 238 239 240 240 241 242 244 245 247 249 249 250 251 252 254 256 259 261 264 266 268 270 273 275 276 278 276 273 273 276 279 283 287 290 290 291 292 291 290 291 290 289 289 288 287 288 291 290 286 282 284 289 291 288 283 281 282 288 295 298 297 292
224 224 224 225 226 225 225 225 224 224 223 223 224 225 227 228 229 230 231 232 234 235 236 237 238 240 241 241 242 244 245 247 249 249 249 249 250 253 255 257 260 263 265 266 268 271 272 273 274 275 275 275 276 277 280 283 288 291 292 291 289 288 289 290 291 291 288 286 288 291 290 285 283 284 286 286 282 278 277 282 290 294 294 288 279
225 224 224 224 225 225 225 225 225 225 224 225 225 226 227 228 230 231 232 233 235 236 236 237 238 239 241 241 242 244 245 246 247 247 246 246 249 252 254 255 257 261 264 266 268 271 273 272 270 271 273 274 277 279 281 283 287 291 293 292 289 286 286 289 292 290 286 285 286 286 281 278 280 284 286 284 280 277 277 279 282 283 282 276 271
225 225 225 224 225 226 226 225 225 224 224 225 226 227 228 229 231 232 233 234 235 236 236 236 238 239 241 241 242 243 244 245 245 245 245 247 249 252 253 254 256 259 263 265 268 270 272 272 270 271 272 273 276 279 282 284 286 289 290 290 289 287 286 288 289 288 285 284 283 281 277 274 274 278 281 277 270 268 269 271 271 270 269 268 268
225 225 225 224 225 226 227 226 225 224 224 225 226 227 228 230 231 232 233 234 235 236 236 237 238 240 241 242 242 243 244 245 245 245 246 248 251 252 254 255 258 260 263 265 267 268 270 271 271 273 273 273 274 278 280 283 285 287 287 286 288 288 287 286 287 287 285 283 283 283 280 274 269 270 273 272 265 262 263 266 268 270 269 267 266
226 225 225 225 224 226 227 227 226 225 225 225 226 227 229 230 231 232 234 235 236 237 237 238 239 240 241 242 243 244 245 246 246 247 248 249 251 253 254 256 258 261 263 266 267 268 269 270 272 274 274 274 275 276 278 281 284 286 286 286 287 287 286 285 285 285 284 284 284 280 273 267 265 265 268 268 266 263 265 269 272 273 271 266 265
226 226 225 225 225 225 227 228 228 227 226 226 226 227 228 229 230 232 233 235 236 237 238 239 240 241 242 243 244 245 246 247 248 248 249 250 252 254 256 257 259 261 263 265 267 268 269 271 272 273 274 275 276 276 276 279 283 285 285 286 287 286 283 281 278 277 278 278 276 268 261 260 262 265 269 271 269 267 270 274 275 274 273 270 271
226 226 226 225 225 225 226 228 229 229 228 227 227 227 228 229 230 231 233 234 236 237 238 239 240 241 242 243 245 246 247 248 248 249 250 251 253 255 256 258 259 261 262 265 266 268 270 272 273 273 273 275 275 273 272 276 282 285 285 286 286 283 278 273 269 268 271 273 270 264 260 260 262 264 268 268 265 264 270 276 278 276 276 274 273
226 226 226 226 226 225 226 227 228 230 230 230 229 228 228 228 229 231 232 234 235 236 237 239 240 241 242 244 245 246 247 248 249 250 251 252 253 255 257 258 259 260 262 264 266 268 271 272 273 273 272 272 272 271 271 275 280 282 283 283 283 280 276 270 264 264 269 272 268 262 259 260 263 265 266 264 263 265 272 278 280 278 275 273 272
226 226 227 226 226 226 226 227 228 229 230 231 231 231 230 229 230 230 232 233 235 236 237 238 239 241 242 243 244 246 247 248 249 250 251 252 254 256 257 258 259 261 262 264 265 267 269 269 270 271 273 273 273 273 273 275 277 276 275 276 277 275 272 268 264 264 269 272 269 264 261 262 264 266 267 268 269 269 271 272 273 270 269 269 272
226 226 227 227 227 227 227 227 228 228 229 230 231 232 233 232 232 232 232 233 234 236 237 238 239 241 242 243 244 245 247 248 249 250 251 253 254 256 257 259 260 261 262 263 265 266 267 267 268 269 271 271 271 272 273 273 273 270 267 267 269 269 268 265 262 261 263 265 265 264 262 262 263 264 266 268 268 266 264 265 265 264 263 266 269
226 226 227 227 227 227 227 228 228 229 229 230 230 232 233 234 234 234 234 235 235 236 237 238 240 241 242 243 244 245 247 248 250 251 252 253 255 256 258 259 261 262 262 263 264 265 266 266 266 267 266 265 266 269 270 269 268 268 266 264 263 264 264 263 261 259 259 260 261 261 261 261 262 263 264 264 262 258 258 261 263 262 262 265 270